Regional Weather Roundup
Issued by NWS

Home | Current Version | Previous Version | Text Only | Print | Product List | Glossary On
Versions: 1 2 3 4 5 6 7 8 9 10 11 12 13 14 15 16 17 18 19 20 21 22 23 24 25 26 27 28 29 30 31 32 33 34 35 36 37 38 39 40 41 42 43 44 45 46 47 48 49 50
000
ASUS46 KSTO 221409
RWRCA

NORTHERN AND CENTRAL CA REGIONAL WEATHER ROUNDUP
NATIONAL WEATHER SERVICE SACRAMENTO CA
600 AM PST MON JAN 22 2018

NOTE: FAIR INDICATES FEW OR NO CLOUDS BELOW 12,000 FEET WITH NO
SIGNIFICANT WEATHER AND/OR OBSTRUCTIONS TO VISIBILITY.

CAZ001-003-221500-
NORTHWEST AREA

CITY           SKY/WX    TMP DP  RH WIND       PRES   REMARKS
CRESCENT CITY  PTCLDY    44  41  89 E8        30.31S
ARCATA         NOT AVBL
SHELTER COVE   NOT AVBL
UKIAH          CLOUDY    47  44  90 W3        30.28R
$$

CAZ006-505>513-221500-
BAY AREA

CITY           SKY/WX    TMP DP  RH WIND       PRES   REMARKS
SANTA ROSA     CLOUDY    53  53 100 S5        30.24R
SAN RAFAEL     N/A       MM  MM  MM MISG
NAPA           LGT RAIN  53  52  96 S10       30.26S FOG
CONCORD        CLOUDY    53  51  93 S9        30.28S
OAKLAND CITY   N/A       MM  MM  MM MISG
OAKLAND        LGT RAIN  50  50 100 SE17      30.29S FOG
SAN FRAN CITY  N/A       54  MM  98 MISG
SAN FRAN ARPT  LGT RAIN  53  50  89 E9        30.28S FOG
LIVERMORE      CLOUDY    51  50  96 SW3       30.28F
HAYWARD        LGT RAIN  51  47  86 SE10      30.29S FOG
REDWOOD CITY   N/A       53  MM  95 MISG
MOFFETT ARPT   CLOUDY    51  45  79 SE10      30.31S
SAN JOSE ARPT  CLOUDY    52  45  77 SE12      30.31S
$$
CAZ034-037-514>518-221500-
CENTRAL COAST

CITY           SKY/WX    TMP DP  RH WIND       PRES   REMARKS
WATSONVILLE    CLOUDY    49  47  93 CALM      30.34S
SALINAS        CLOUDY    46  42  86 E14       30.34S
MONTEREY       CLOUDY    54  44  69 E3        30.34S
PT PIEDRAS BLS NOT AVBL
SAN LUIS OBISP CLEAR     37  33  85 CALM      30.33S
SANTA MARIA    CLEAR     37  34  89 CALM      30.33R
$$
CAZ015-016-221500-
NORTHERN SACRAMENTO VALLEY

CITY           SKY/WX    TMP DP  RH WIND       PRES   REMARKS
REDDING        CLOUDY    43  42  97 N6        30.30R FOG
RED BLUFF      LGT RAIN  46  45  96 CALM      30.31R FOG
OROVILLE       CLOUDY    47  46  97 SE9       30.31S
$$
CAZ016>018-221500-
SOUTHERN SACRAMENTO VALLEY

CITY           SKY/WX    TMP DP  RH WIND       PRES   REMARKS
AUBURN         CLOUDY    43  41  93 SE15      30.29S
BEALE AFB      DRIZZLE   47  44  92 SE7       30.29R
LINCOLN        CLOUDY   N/A N/A N/A SE10G16   30.30R
MARYSVILLE     LGT RAIN  46  44  93 SE12      30.31R FOG
SAC INTL ARPT  CLOUDY    47  45  93 SE17      30.29S
MATHER AIRPORT CLOUDY    46  45  93 SE15      30.31S
DOWNTOWN SAC   N/A       46  MM  MM MISG
SAC EXEC ARPT  CLOUDY    47  44  90 SE12G23   30.31R
VACAVILLE      LGT RAIN  47  47 100 S8        30.30S FOG
TRAVIS AFB     LGT RAIN  46  46 100 SE10      30.27S FOG
$$
CAZ019>021-221500-
SAN JOAQUIN VALLEY

CITY           SKY/WX    TMP DP  RH WIND       PRES   REMARKS
STOCKTON       LGT RAIN  48  43  82 SE9       30.32R
MODESTO        CLOUDY    46  42  86 SE7       30.34R
MERCED         CLOUDY    43  37  79 E6        30.35S
LEMOORE        CLOUDY    32  31  96 S3        30.38R
FRESNO         PTCLDY    38  34  85 CALM      30.38R
HANFORD        CLEAR     34  33  96 E5        30.38S FOG     WCI  30
PORTERVILLE    CLEAR     36  34  92 CALM      30.38R
BAKERSFIELD    CLEAR     41  34  76 E5        30.35S
$$
CAZ011-012-071-221500-
NORTHERN MOUNTAINS

CITY           SKY/WX    TMP DP  RH WIND       PRES   REMARKS
YREKA          MOCLDY    36  34  92 CALM      30.26R
MOUNT SHASTA   CLOUDY    33  32  96 CALM      30.23R
ALTURAS        LGT SNOW  32  31  96 NW3       30.21R FOG
$$
CAZ011-012-071-221500-
SIERRA NEVADA MTNS

CITY           SKY/WX    TMP DP  RH WIND       PRES   REMARKS
BLUE CANYON    LGT SNOW  31  31 100 SE6       30.25R FOG     WCI  25
TRUCKEE        NOT AVBL
TAHOE VLY ARPT LGT SNOW  28  24  85 S10       30.22S FOG     WCI  19
MAMMOTH LAKES  FAIR      18  11  77 W3        30.28R
$$




USA.gov is the U.S. government's official web portal to all federal, state and local government web resources and services.